Voltar ao catálogo

NOAA 16 DEB

AtivoSSO
NORAD 41411·DEBRIS·🇺🇸 United States

Lançado Sep 21, 2000 de Vandenberg Space Force Base

Loading…

Próximas Passagens (próximas 24 horas)

TLE

AtualizadoSource: Space-Track

Época: Sep 14, 2026, 04:00 UTC

1 41411U 00055KQ  26257.16703769  .00003431  00000-0  11133-2 0  9994
2 41411  98.8489  28.3009 0013511 260.0014  99.9648 14.39530179549538

Acompanhe NOAA 16 DEB em tempo real com AllMySat

Download on the App Store